Location: Newark
(45.5000°N, 11.4167°E)
Time: 17:05:26
(UTC+00:00)

Explorer 11/Cluster Stage 4 - Pass Details

Date: 20 August 2019
Orbit: 467 x 1260 km, 28.8° (Epoch: 17 September)

Event Time Altitude Azimuth Distance (km) Brightness Sun altitude
Rises 11:56:46 0° 233° (SW) 4,182 10.7 55.9°
Reaches altitude 10° 12:00:38 10° 218° (SW) 3,164 10.4 55.7°
Maximum altitude 12:06:00 20° 175° (S) 2,377 9.9 55.4°
Drops below altitude 10° 12:10:57 10° 132° (SE) 2,873 9.7 55.1°
Sets 12:14:15 0° 116° (ESE) 3,687 10.0 54.8°
